Regional Weather Roundup
Issued by NWS

Home | Current Version | Previous Version | Text Only | Print | Product List | Glossary Off
Versions: 1 2 3 4 5 6 7 8 9 10 11 12 13 14 15 16 17 18 19 20 21 22 23 24 25 26 27 28 29 30 31 32 33 34 35 36 37 38 39 40 41 42 43 44 45 46 47 48 49 50

000
ASUS43 KFSD 180702
RWRSD

WEATHER ROUNDUP FOR SOUTH DAKOTA
NATIONAL WEATHER SERVICE SIOUX FALLS SD
200 AM CDT WED OCT 18 2017

NOTE: "FAIR" INDICATES FEW OR NO CLOUDS BELOW 12,000 FEET WITH NO
SIGNIFICANT WEATHER AND/OR OBSTRUCTIONS TO VISIBILITY.


SDZ001>005-009-010-012>017-180800-
NORTHWEST AND NORTH CENTRAL SOUTH DAKOTA

CITY           SKY/WX    TMP DP  RH WIND       PRES   REMARKS
BUFFALO          N/A     58  25  28 W14       29.66R
FAITH            N/A     53  27  36 S12       29.69F
MOBRIDGE       CLOUDY    49  44  83 SE7       29.64F
$$

SDZ012>016-024>037-041>051-057-063-072>074-180800-
SOUTHWEST AND SOUTH CENTRAL SOUTH DAKOTA

CITY           SKY/WX    TMP DP  RH WIND       PRES   REMARKS
RAPID CTY ARPT CLOUDY    51  23  33 SE6       29.74F
PIERRE         CLEAR     52  31  44 SW7       29.69F
CUSTER         CLOUDY    57  14  18 W9        29.93F
ELLSWORTH AFB  CLOUDY    58  21  24 CALM      29.73F
PHILIP         CLOUDY    48  32  53 W7        29.72F
PINE RIDGE     CLOUDY    45  27  49 NW7       29.84F
SPEARFISH      FAIR      70  19  14 SW20G33   29.76F
WINNER         FAIR      57  32  38 S17       29.76F
$$

SDZ004>011-016>023-039-040-180800-
NORTHEAST SOUTH DAKOTA

CITY           SKY/WX    TMP DP  RH WIND       PRES   REMARKS
ABERDEEN       CLOUDY    50  41  71 S12       29.69F
WATERTOWN      CLEAR     49  42  77 SE8       29.77F
BROOKINGS      CLEAR     53  44  71 S13       29.82F
SISSETON         N/A     64  39  39 SW18      29.69F
$$

SDZ017-020-022-023-036>040-048>070-180800-
SOUTHEAST SOUTH DAKOTA

CITY           SKY/WX    TMP DP  RH WIND       PRES   REMARKS
SIOUX FALLS    CLEAR     56  46  69 S10       29.84F
HURON          CLOUDY    52  40  63 S10       29.74F
CHAMBERLAIN    CLEAR     57  36  45 S7        29.74F
MITCHELL       CLEAR     55  42  61 S13       29.78F
YANKTON        CLEAR     55  44  66 SE7       29.85F
$$

ABBREVIATIONS USED IN REMARKS
   TC - TEMPERATURE IN CELSIUS
  WCI - WIND CHILL INDEX
   HX - HEAT INDEX
  VSB - VISIBILITY





USA.gov is the U.S. government's official web portal to all federal, state and local government web resources and services.